When you browse on this site, cookies collect data to enhance your experience and personalize the content and advertising you see.
Visit our Privacy Policy to learn more. By continuing to use the site, you agree to this use of cookies and data.
  • In Österreich
  • Länderverzeichnis
  • Für 7 Tage
  • Wassertemperatur
  • Wetterkarte
  • News
  • Widgets
  • user-avatar
    Anmelden

    Stündliche Wetter Zorya

    Heute, 25 August, Sonntag

    Zeit Temperatur Niederschläge Wind Luftdruck Luftfeuchtigkeit
    00:00 +15°C° 0 mm 2 m/S 755 mmHg 77%
    01:00 +14°C° 0 mm 2 m/S 755 mmHg 81%
    02:00 +14°C° 0 mm 1 m/S 755 mmHg 84%
    03:00 +14°C° 0 mm 2 m/S 755 mmHg 86%
    04:00 +14°C° 0 mm 2 m/S 755 mmHg 88%
    05:00 +14°C° 0 mm 2 m/S 755 mmHg 90%
    06:00 +16°C° 0 mm 2 m/S 755 mmHg 84%
    07:00 +18°C° 0 mm 2 m/S 756 mmHg 77%
    08:00 +20°C° 0 mm 2 m/S 756 mmHg 71%
    09:00 +21°C° 0 mm 2 m/S 756 mmHg 66%
    10:00 +23°C° 0 mm 2 m/S 756 mmHg 61%
    11:00 +25°C° 0 mm 2 m/S 756 mmHg 56%
    12:00 +25°C° 0 mm 2 m/S 756 mmHg 55%
    13:00 +25°C° 0 mm 3 m/S 756 mmHg 55%
    14:00 +26°C° 0 mm 2 m/S 756 mmHg 53%
    15:00 +25°C° 0 mm 2 m/S 756 mmHg 57%
    16:00 +25°C° 0 mm 2 m/S 756 mmHg 60%
    17:00 +24°C° 0 mm 2 m/S 755 mmHg 63%
    18:00 +23°C° 0 mm 2 m/S 756 mmHg 67%
    19:00 +20°C° 0 mm 2 m/S 756 mmHg 71%
    20:00 +18°C° 0 mm 3 m/S 756 mmHg 75%
    21:00 +18°C° 0 mm 3 m/S 756 mmHg 77%
    22:00 +17°C° 0 mm 3 m/S 756 mmHg 80%
    23:00 +16°C° 0 mm 2 m/S 756 mmHg 82%

    Morgen, 26 August, Montag

    Zeit Temperatur Niederschläge Wind Luftdruck Luftfeuchtigkeit
    00:00 +15°C° 0 mm 2 m/S 757 mmHg 83%
    01:00 +15°C° 0 mm 2 m/S 757 mmHg 85%
    02:00 +14°C° 0 mm 2 m/S 757 mmHg 86%
    03:00 +14°C° 0 mm 2 m/S 757 mmHg 87%
    04:00 +14°C° 0 mm 2 m/S 757 mmHg 87%
    05:00 +13°C° 0 mm 2 m/S 757 mmHg 88%
    06:00 +15°C° 0 mm 2 m/S 757 mmHg 82%
    07:00 +17°C° 0 mm 2 m/S 757 mmHg 76%
    08:00 +19°C° 0 mm 2 m/S 757 mmHg 70%
    09:00 +20°C° 0 mm 2 m/S 757 mmHg 64%
    10:00 +23°C° 0 mm 2 m/S 757 mmHg 58%
    11:00 +24°C° 0 mm 2 m/S 757 mmHg 53%
    12:00 +24°C° 0 mm 2 m/S 757 mmHg 50%
    13:00 +25°C° 0 mm 2 m/S 757 mmHg 48%
    14:00 +25°C° 0 mm 1 m/S 757 mmHg 45%
    15:00 +25°C° 0 mm 1 m/S 756 mmHg 46%
    16:00 +25°C° 0 mm 1 m/S 756 mmHg 48%
    17:00 +25°C° 0 mm 1 m/S 755 mmHg 50%
    18:00 +23°C° 0 mm 1 m/S 755 mmHg 55%
    19:00 +21°C° 0 mm 1 m/S 755 mmHg 60%
    20:00 +18°C° 0 mm 1 m/S 755 mmHg 65%
    21:00 +18°C° 0 mm 1 m/S 755 mmHg 69%
    22:00 +16°C° 0 mm 1 m/S 755 mmHg 72%
    23:00 +14°C° 0 mm 0 m/S 755 mmHg 76%

    übermorgen, 27 August, Dienstag

    Zeit Temperatur Niederschläge Wind Luftdruck Luftfeuchtigkeit
    00:00 +14°C° 0 mm 0 m/S 755 mmHg 77%
    01:00 +14°C° 0 mm 0 m/S 755 mmHg 79%
    02:00 +14°C° 0 mm 0 m/S 755 mmHg 80%
    03:00 +14°C° 0 mm 1 m/S 755 mmHg 80%
    04:00 +14°C° 0 mm 1 m/S 754 mmHg 80%
    05:00 +14°C° 0 mm 1 m/S 754 mmHg 81%
    06:00 +16°C° 0 mm 2 m/S 754 mmHg 77%
    07:00 +17°C° 0 mm 2 m/S 754 mmHg 72%
    08:00 +19°C° 0 mm 2 m/S 754 mmHg 68%
    09:00 +21°C° 0 mm 3 m/S 754 mmHg 65%
    10:00 +22°C° 0 mm 3 m/S 754 mmHg 62%
    11:00 +24°C° 0 mm 3 m/S 754 mmHg 59%
    12:00 +25°C° 0 mm 4 m/S 754 mmHg 59%
    13:00 +26°C° 0 mm 4 m/S 754 mmHg 58%
    14:00 +26°C° 0 mm 5 m/S 753 mmHg 58%
    15:00 +26°C° 0 mm 4 m/S 753 mmHg 60%
    16:00 +25°C° 0 mm 4 m/S 753 mmHg 61%
    17:00 +25°C° 0 mm 4 m/S 753 mmHg 63%
    18:00 +22°C° 0 mm 4 m/S 753 mmHg 70%
    19:00 +20°C° 0 mm 3 m/S 753 mmHg 77%
    20:00 +18°C° 0 mm 3 m/S 753 mmHg 84%
    21:00 +18°C° 0 mm 3 m/S 753 mmHg 87%
    22:00 +17°C° 0 mm 3 m/S 753 mmHg 90%
    23:00 +17°C° 0 mm 3 m/S 753 mmHg 92%

    28 August, Mittwoch

    Zeit Temperatur Niederschläge Wind Luftdruck Luftfeuchtigkeit
    00:00 +16°C° 0 mm 2 m/S 754 mmHg 92%
    01:00 +15°C° 0 mm 2 m/S 754 mmHg 92%
    02:00 +15°C° 0 mm 2 m/S 754 mmHg 92%
    03:00 +14°C° 0 mm 2 m/S 754 mmHg 92%
    04:00 +14°C° 0 mm 2 m/S 754 mmHg 92%
    05:00 +13°C° 0 mm 2 m/S 754 mmHg 92%
    06:00 +14°C° 0 mm 3 m/S 754 mmHg 85%
    07:00 +16°C° 0 mm 3 m/S 755 mmHg 79%
    08:00 +18°C° 0 mm 3 m/S 755 mmHg 72%
    09:00 +19°C° 0 mm 4 m/S 755 mmHg 66%
    10:00 +20°C° 0 mm 4 m/S 755 mmHg 60%
    11:00 +22°C° 0 mm 4 m/S 755 mmHg 54%
    12:00 +22°C° 0 mm 4 m/S 755 mmHg 52%
    13:00 +22°C° 0 mm 4 m/S 755 mmHg 51%
    14:00 +22°C° 0 mm 4 m/S 755 mmHg 50%
    15:00 +21°C° 0 mm 4 m/S 754 mmHg 52%
    16:00 +21°C° 0 mm 4 m/S 754 mmHg 54%
    17:00 +20°C° 0 mm 4 m/S 754 mmHg 56%
    18:00 +18°C° 0 mm 3 m/S 755 mmHg 61%
    19:00 +17°C° 0 mm 3 m/S 755 mmHg 66%
    20:00 +14°C° 0 mm 3 m/S 755 mmHg 70%
    21:00 +13°C° 0 mm 3 m/S 755 mmHg 72%
    22:00 +12°C° 0 mm 3 m/S 755 mmHg 73%
    23:00 +11°C° 0 mm 3 m/S 755 mmHg 74%

    29 August, Donnerstag

    Zeit Temperatur Niederschläge Wind Luftdruck Luftfeuchtigkeit
    00:00 +10°C° 0 mm 3 m/S 755 mmHg 75%
    01:00 +9°C° 0 mm 3 m/S 756 mmHg 75%
    02:00 +9°C° 0 mm 2 m/S 756 mmHg 76%
    03:00 +8°C° 0 mm 2 m/S 756 mmHg 75%
    04:00 +8°C° 0 mm 2 m/S 756 mmHg 75%
    05:00 +7°C° 0 mm 2 m/S 756 mmHg 74%
    06:00 +9°C° 0 mm 3 m/S 756 mmHg 68%
    07:00 +11°C° 0 mm 3 m/S 756 mmHg 62%
    08:00 +13°C° 0 mm 3 m/S 756 mmHg 56%
    09:00 +14°C° 0 mm 3 m/S 756 mmHg 50%
    10:00 +17°C° 0 mm 3 m/S 756 mmHg 44%
    11:00 +19°C° 0 mm 3 m/S 756 mmHg 38%
    12:00 +19°C° 0 mm 3 m/S 756 mmHg 36%
    13:00 +20°C° 0 mm 3 m/S 756 mmHg 35%
    14:00 +21°C° 0 mm 3 m/S 756 mmHg 34%
    15:00 +20°C° 0 mm 3 m/S 755 mmHg 38%
    16:00 +20°C° 0 mm 3 m/S 755 mmHg 43%
    17:00 +20°C° 0 mm 2 m/S 755 mmHg 48%
    18:00 +18°C° 0 mm 2 m/S 755 mmHg 53%
    19:00 +16°C° 0 mm 2 m/S 755 mmHg 58%
    20:00 +14°C° 0 mm 2 m/S 755 mmHg 63%
    21:00 +13°C° 0 mm 2 m/S 755 mmHg 65%
    22:00 +13°C° 0 mm 2 m/S 755 mmHg 67%
    23:00 +12°C° 0 mm 2 m/S 755 mmHg 69%

    30 August, Freitag

    Zeit Temperatur Niederschläge Wind Luftdruck Luftfeuchtigkeit
    00:00 +12°C° 0 mm 2 m/S 755 mmHg 71%
    01:00 +12°C° 0 mm 1 m/S 755 mmHg 73%
    02:00 +11°C° 0 mm 1 m/S 755 mmHg 74%
    03:00 +11°C° 0 mm 1 m/S 755 mmHg 76%
    04:00 +11°C° 0 mm 1 m/S 755 mmHg 77%
    05:00 +11°C° 0 mm 1 m/S 755 mmHg 79%
    06:00 +13°C° 0 mm 1 m/S 755 mmHg 73%
    07:00 +15°C° 0 mm 1 m/S 755 mmHg 68%
    08:00 +18°C° 0 mm 1 m/S 755 mmHg 62%
    09:00 +19°C° 0 mm 1 m/S 755 mmHg 58%
    10:00 +21°C° 0 mm 1 m/S 755 mmHg 54%
    11:00 +23°C° 0 mm 1 m/S 755 mmHg 50%
    12:00 +23°C° 0 mm 1 m/S 755 mmHg 49%
    13:00 +24°C° 0 mm 1 m/S 755 mmHg 47%
    14:00 +25°C° 0 mm 1 m/S 754 mmHg 45%
    15:00 +24°C° 0 mm 1 m/S 754 mmHg 47%
    16:00 +24°C° 0 mm 1 m/S 754 mmHg 50%
    17:00 +24°C° 0 mm 1 m/S 754 mmHg 53%
    18:00 +22°C° 0 mm 1 m/S 754 mmHg 57%
    19:00 +20°C° 0 mm 1 m/S 754 mmHg 62%
    20:00 +18°C° 0 mm 1 m/S 754 mmHg 66%
    21:00 +16°C° 0 mm 1 m/S 754 mmHg 69%
    22:00 +15°C° 0 mm 1 m/S 754 mmHg 73%
    23:00 +15°C° 0 mm 1 m/S 754 mmHg 76%
    Mehr zeigen